TimeEDT,TemperatureF,Dew PointF,Humidity,Sea Level PressureIn,VisibilityMPH,Wind Direction,Wind SpeedMPH,Gust SpeedMPH,PrecipitationIn,Events,Conditions,WindDirDegrees,DateUTC
12:53 AM,46.0,30.9,56,30.07,10.0,NW,6.9,-,N/A,,Overcast,320,2013-03-29 04:53:00
1:53 AM,46.0,30.9,56,30.08,10.0,NNW,6.9,-,N/A,,Overcast,340,2013-03-29 05:53:00
2:53 AM,45.0,30.9,58,30.08,10.0,NNW,11.5,16.1,N/A,,Partly Cloudy,330,2013-03-29 06:53:00
3:53 AM,43.0,30.0,60,30.08,10.0,Variable,5.8,-,N/A,,Clear,0,2013-03-29 07:53:00
4:53 AM,43.0,28.0,56,30.08,10.0,NNW,8.1,-,N/A,,Clear,340,2013-03-29 08:53:00
5:53 AM,42.1,27.0,55,30.08,10.0,NNW,5.8,-,N/A,,Partly Cloudy,330,2013-03-29 09:53:00
6:53 AM,42.1,28.0,58,30.10,10.0,Calm,Calm,-,N/A,,Clear,0,2013-03-29 10:53:00
7:53 AM,43.0,28.9,58,30.11,10.0,West,3.5,-,N/A,,Clear,270,2013-03-29 11:53:00
8:53 AM,46.9,28.0,48,30.10,10.0,Variable,5.8,-,N/A,,Clear,0,2013-03-29 12:53:00
9:53 AM,50.0,28.9,44,30.10,10.0,WNW,6.9,-,N/A,,Clear,290,2013-03-29 13:53:00
10:53 AM,53.1,28.0,38,30.10,10.0,NNW,10.4,-,N/A,,Clear,340,2013-03-29 14:53:00
11:53 AM,54.0,27.0,35,30.08,10.0,Variable,4.6,-,N/A,,Scattered Clouds,0,2013-03-29 15:53:00
12:53 PM,55.9,26.1,32,30.06,10.0,NW,9.2,-,N/A,,Scattered Clouds,310,2013-03-29 16:53:00
1:20 PM,51.8,33.8,50,30.06,10.0,WSW,8.1,-,N/A,,Partly Cloudy,250,2013-03-29 17:20:00
1:53 PM,52.0,30.9,45,30.05,10.0,SW,12.7,21.9,N/A,,Scattered Clouds,220,2013-03-29 17:53:00
2:53 PM,53.1,30.0,41,30.03,10.0,SW,11.5,19.6,N/A,,Scattered Clouds,220,2013-03-29 18:53:00
3:53 PM,52.0,30.0,43,30.02,10.0,SW,12.7,21.9,N/A,,Partly Cloudy,220,2013-03-29 19:53:00
4:53 PM,50.0,30.0,46,30.02,10.0,SW,6.9,-,N/A,,Overcast,220,2013-03-29 20:53:00
5:53 PM,52.0,28.9,41,30.02,10.0,Variable,4.6,-,N/A,,Overcast,0,2013-03-29 21:53:00
6:53 PM,52.0,27.0,38,30.03,10.0,NW,6.9,-,N/A,,Overcast,310,2013-03-29 22:53:00
7:53 PM,50.0,26.1,39,30.06,10.0,NW,12.7,19.6,N/A,,Overcast,320,2013-03-29 23:53:00
8:53 PM,48.9,25.0,39,30.07,10.0,NW,8.1,-,N/A,,Overcast,320,2013-03-30 00:53:00
9:53 PM,48.0,26.1,42,30.09,10.0,NNW,9.2,-,N/A,,Overcast,330,2013-03-30 01:53:00
10:53 PM,46.0,26.1,46,30.09,10.0,NW,5.8,-,N/A,,Partly Cloudy,320,2013-03-30 02:53:00
11:53 PM,45.0,28.0,52,30.10,10.0,NW,3.5,-,N/A,,Overcast,310,2013-03-30 03:53:00